Wind_Speed
4 5 5 6 6 7 7 7 7 7 7 7 7 7 8 8 9 9 9 9 9 9 9 9 10 11 11 11 11 10 9 9 9 5 1 2 1 2 5 6 7 11 14 15 18 19 17 15 13 13 11 10 9 9 11 9 8 7 5 6 6 6 2 3 1 3 5 4 7 10 11 10 11 11 13 11 4 4 4 2 3 3 2 6 7 10 13 15
4 4 5 5 6 7 7 7 7 7 7 7 7 7 7 8 9 9 9 9 9 9 9 9 10 10 11 11 11 11 9 9 5 2 6 3 1 2 3 6 7 11 16 16 18 20 18 16 15 15 11 10 9 9 10 9 10 9 5 6 7 2 4 4 3 4 5 6 9 10 10 10 10 11 13 11 7 7 3 4 5 5 6 8 10 11 12 16
4 4 5 5 6 6 7 7 7 7 7 7 7 8 8 8 8 9 9 9 10 10 9 10 10 11 11 11 11 10 10 7 0 6 5 2 1 2 2 6 8 10 15 15 16 17 15 15 16 15 11 9 8 9 10 9 10 10 7 7 4 1 4 3 2 3 5 8 9 10 11 11 9 10 11 11 10 6 1 2 3 6 9 9 10 12 14 18
4 4 4 5 5 6 7 7 8 8 8 8 8 8 8 8 8 9 9 10 10 10 10 9 10 11 11 11 11 10 11 6 4 6 5 1 1 2 2 7 9 11 15 15 15 14 11 13 15 13 10 8 8 9 10 10 9 8 8 7 2 2 1 3 2 4 6 9 10 11 12 11 10 11 11 10 10 2 5 7 4 6 11 11 12 14 14 17
4 4 4 5 6 6 7 8 9 9 8 8 8 8 8 8 8 8 9 9 10 10 10 10 10 11 11 11 11 10 10 4 6 5 4 1 3 2 3 9 12 13 16 16 15 13 11 13 14 12 10 7 9 9 10 12 10 6 8 9 3 1 3 2 1 6 8 10 10 11 11 10 12 12 10 9 8 4 7 7 5 6 12 14 14 14 16 16
6 6 6 6 6 6 7 9 9 10 9 8 8 8 8 9 8 9 9 9 10 10 10 9 10 10 11 11 11 9 7 3 1 4 5 3 3 1 6 12 13 14 17 16 15 13 13 15 14 12 10 7 9 9 9 13 12 7 7 10 8 6 6 4 6 8 9 11 11 12 11 12 14 12 8 9 9 7 8 3 3 8 12 13 14 15 17 17
6 7 7 6 7 7 7 9 9 9 9 8 8 8 8 9 9 9 9 9 9 10 10 9 10 10 10 11 10 7 6 5 5 7 6 4 1 3 9 13 13 15 17 15 15 14 14 16 15 12 9 7 9 10 8 12 13 10 6 6 8 8 9 9 10 10 10 12 12 13 13 12 13 10 9 10 8 6 4 2 7 11 14 14 15 15 16 16
7 7 8 8 8 8 9 9 10 10 10 9 8 8 9 9 9 9 9 9 9 10 10 9 10 10 10 9 8 7 7 4 5 5 2 3 4 6 10 12 13 15 15 15 15 14 14 15 14 11 9 6 7 10 9 10 12 12 10 6 7 7 8 9 10 10 11 12 12 13 12 12 11 10 12 10 5 3 4 8 12 14 15 15 16 15 15 14
7 8 9 9 10 10 10 10 10 11 10 9 9 9 9 9 9 9 9 9 9 10 9 9 9 10 10 7 7 7 4 2 3 2 2 4 6 9 10 10 13 14 13 13 12 13 13 13 13 9 6 4 7 9 10 9 7 9 13 10 8 8 8 10 10 11 11 11 11 12 12 11 8 8 8 2 4 4 7 11 13 14 15 15 16 16 14 13
7 9 10 11 11 11 12 12 11 11 10 10 9 9 10 10 9 9 9 10 10 10 10 9 8 9 9 6 6 5 1 1 1 3 3 5 8 11 10 8 11 13 11 11 11 12 11 9 11 7 4 3 7 8 11 10 2 2 8 9 9 9 9 9 10 10 10 11 12 12 12 10 7 7 3 6 6 5 9 12 13 14 14 15 16 15 14 15
8 9 11 11 12 12 12 12 12 11 11 10 9 10 10 10 9 9 10 10 10 11 10 9 8 9 8 6 6 5 2 3 2 5 5 7 10 10 9 8 10 10 9 9 9 11 10 6 8 8 3 4 8 7 11 10 4 3 6 7 9 9 9 9 9 9 9 9 10 11 11 10 9 9 4 6 6 6 9 11 13 13 14 14 15 15 15 18
9 10 12 12 13 13 12 12 11 11 11 10 10 10 10 10 9 9 10 11 11 11 11 10 9 8 8 8 9 8 6 4 5 6 5 8 10 11 10 9 9 8 7 7 7 9 9 6 10 10 2 4 8 5 8 9 6 6 6 7 7 8 9 8 8 8 8 7 6 7 9 10 11 8 4 6 5 7 9 11 12 13 14 15 14 15 17 20
11 12 13 13 13 13 12 12 10 10 11 11 11 10 11 10 9 10 10 11 12 11 11 11 9 8 7 7 8 8 6 5 5 7 6 6 8 10 12 11 10 8 6 4 5 8 8 7 11 9 3 5 6 3 3 7 7 6 6 6 5 7 6 5 4 6 7 5 3 6 7 7 11 6 7 6 7 9 10 11 12 13 14 15 14 16 19 19
12 13 14 14 14 13 12 11 10 10 11 11 11 11 11 10 10 10 10 12 12 12 12 11 10 8 5 6 9 10 9 9 9 9 10 8 7 7 10 11 11 10 7 5 3 7 8 8 9 7 5 5 3 2 3 6 7 5 4 5 5 5 4 7 2 4 4 2 4 9 7 5 8 9 8 6 8 10 11 12 12 13 14 15 15 16 18 18
13 13 14 14 14 14 12 11 10 10 10 10 11 11 11 11 11 10 11 11 11 12 11 10 9 5 5 8 11 9 8 11 12 12 12 12 10 8 9 10 10 11 9 6 5 7 9 9 9 8 7 5 2 5 6 5 6 5 4 4 5 4 3 6 3 2 1 3 5 9 7 6 5 9 8 6 7 9 11 13 14 14 14 15 15 15 17 17
13 14 14 14 14 14 13 11 10 9 9 10 11 11 11 11 10 10 11 10 11 11 9 8 6 4 5 5 4 2 3 6 7 8 11 14 13 9 10 10 10 11 9 8 6 6 9 10 9 7 7 6 6 7 5 4 5 5 6 4 3 4 2 5 5 2 2 0 5 7 6 6 3 8 8 6 6 8 9 12 13 14 14 14 15 15 16 16
14 14 14 13 13 13 13 11 9 8 8 9 10 11 10 10 10 10 9 9 9 7 6 6 3 4 6 4 3 2 5 7 7 6 7 13 15 11 12 11 10 11 9 8 6 6 11 11 7 5 6 7 6 6 6 7 6 6 5 4 3 4 3 2 5 5 2 4 5 6 6 7 4 4 7 6 6 7 8 10 12 13 14 15 16 15 16 16
14 14 13 13 13 13 12 11 8 7 7 8 10 9 9 9 9 9 9 8 5 3 5 6 3 3 6 7 5 6 9 8 7 5 4 10 15 13 12 12 12 13 11 8 7 8 11 10 7 6 6 7 6 7 7 4 3 4 5 4 3 4 5 4 2 3 2 5 6 7 7 9 9 4 7 6 5 6 7 9 11 13 14 15 16 15 16 16
14 13 12 12 12 12 10 9 7 6 6 7 9 8 8 8 8 9 8 6 5 4 4 5 8 2 1 4 6 7 10 8 5 4 4 9 15 14 11 11 13 14 11 8 8 10 10 8 7 7 7 9 9 11 9 1 2 1 2 3 3 3 4 3 1 1 3 6 8 9 9 8 9 6 7 6 5 6 7 9 11 12 13 15 16 16 17 17
13 12 11 11 10 10 9 8 7 6 6 7 7 5 5 5 5 4 6 10 13 12 10 5 9 8 2 3 4 5 9 9 4 4 7 10 15 15 12 12 14 12 9 7 8 9 9 7 7 9 9 11 13 11 7 2 1 2 3 4 5 5 4 3 3 3 3 6 8 9 10 9 9 8 5 6 5 6 8 10 11 13 14 15 16 17 17 16
11 10 10 10 9 9 8 8 7 6 7 7 5 3 3 4 3 1 2 10 15 15 15 12 12 13 8 2 4 6 7 7 6 6 8 11 16 15 14 15 12 9 9 8 7 7 7 8 9 12 10 8 9 9 5 3 4 5 6 6 6 7 4 3 4 5 2 5 9 10 11 10 11 11 5 5 5 8 9 11 12 14 14 15 17 17 16 15
10 9 9 9 9 8 7 8 8 7 7 7 4 3 3 4 5 4 5 8 12 12 14 14 13 14 13 10 11 10 5 6 9 10 10 14 18 15 15 16 11 8 9 8 6 6 7 9 11 10 5 4 6 7 7 6 6 6 6 6 6 5 3 3 5 5 3 4 7 8 9 9 11 11 7 5 7 9 10 12 14 15 15 15 16 16 15 15
9 9 9 9 8 7 8 8 7 6 7 6 5 5 5 7 8 6 5 7 10 9 10 10 11 12 13 15 16 15 12 12 11 13 14 16 17 16 15 15 13 9 10 10 8 7 7 8 10 8 6 7 7 7 8 6 6 7 6 6 6 3 2 3 5 5 4 6 7 7 7 8 9 11 10 9 8 8 9 12 14 15 15 14 14 14 16 18
9 9 9 9 8 7 8 8 6 6 5 5 6 7 8 9 6 5 4 7 7 5 6 6 7 8 9 9 11 15 17 16 14 14 17 18 16 14 13 15 14 10 10 13 13 11 6 2 4 8 8 9 8 8 9 6 6 8 9 9 7 4 4 5 4 3 5 8 9 8 7 8 10 12 11 8 9 8 9 11 14 15 15 14 12 13 16 17
9 9 9 9 8 7 8 8 6 5 4 4 6 8 9 8 5 4 4 6 4 4 4 4 4 3 5 5 8 12 13 15 17 15 18 21 17 13 12 14 13 10 12 14 12 12 6 5 6 9 10 11 10 9 10 8 7 7 9 10 10 9 9 10 8 5 7 8 8 7 7 6 8 11 11 8 9 9 9 10 12 14 15 15 14 14 15 15
9 9 9 10 9 7 6 4 3 5 3 5 7 8 8 5 4 2 3 5 2 4 3 4 3 3 3 4 9 10 7 10 14 15 17 20 19 13 10 11 10 9 11 11 8 7 4 8 9 9 9 11 10 8 10 9 8 6 5 7 10 11 10 9 7 6 6 3 5 7 8 6 5 7 9 9 9 10 9 8 10 12 14 16 16 14 14 15
10 8 9 10 10 8 4 3 5 5 2 4 7 8 5 3 3 1 3 5 2 2 2 4 3 3 2 4 12 10 3 4 9 14 18 19 19 14 9 9 9 8 6 7 5 5 6 9 9 8 8 9 8 7 8 9 9 4 3 2 7 8 9 9 8 8 6 1 4 8 8 6 5 6 7 8 9 9 7 5 7 10 12 14 16 14 14 15
10 9 9 10 10 9 5 5 6 5 5 6 8 8 4 2 2 2 4 4 2 2 2 4 3 2 3 5 13 10 1 3 5 12 17 18 18 15 12 11 11 9 9 8 5 5 10 12 11 11 9 7 7 7 7 10 10 3 4 1 5 4 6 8 7 8 5 3 6 9 8 6 7 6 6 7 9 7 4 1 3 7 9 11 14 15 14 14
10 9 9 10 10 9 7 5 4 6 9 8 7 6 3 2 1 3 5 3 2 2 2 4 3 2 3 5 12 12 5 2 1 8 15 17 16 12 9 11 12 11 12 12 8 3 6 8 10 13 11 8 10 9 8 10 8 1 2 3 3 4 5 6 7 6 4 5 8 8 9 7 7 6 6 6 6 3 1 1 0 3 7 10 13 14 13 14
10 10 10 9 9 9 7 4 4 7 9 9 7 5 3 3 3 4 4 1 2 3 2 3 4 2 2 4 8 12 10 3 3 9 13 15 16 11 5 7 10 9 9 12 10 2 4 2 3 9 10 8 9 8 7 10 7 1 3 6 5 5 5 5 6 5 5 8 9 8 9 8 8 4 2 2 1 2 2 2 0 1 6 10 12 13 13 15
10 10 10 9 8 8 5 2 4 7 9 9 7 5 4 4 4 5 3 1 0 2 3 3 2 1 3 4 3 9 11 6 5 11 11 11 14 12 7 6 7 7 7 8 9 6 6 5 4 7 9 7 6 5 6 8 7 4 6 7 5 5 5 5 6 5 7 8 5 6 7 9 9 2 4 5 4 3 4 4 3 2 6 10 11 12 12 14
10 9 9 8 9 8 3 2 5 7 10 10 8 7 6 4 5 4 2 1 2 1 2 1 1 4 5 4 3 6 9 8 8 10 10 10 10 10 10 9 8 8 7 7 8 8 8 8 7 8 8 8 7 6 6 6 7 7 7 6 7 6 6 7 7 6 8 5 4 4 5 7 7 1 5 5 4 3 4 4 2 3 6 10 11 12 14 14
9 8 7 8 8 5 3 6 8 8 10 10 8 7 6 4 4 2 1 2 1 3 2 2 5 7 7 5 3 5 6 7 10 10 10 12 10 11 13 11 11 10 7 7 9 6 7 9 11 10 8 11 11 7 7 8 8 9 8 7 8 7 6 8 7 7 7 4 4 3 3 7 7 3 7 5 4 4 4 3 1 2 5 9 11 13 13 12
6 6 6 6 4 3 5 7 8 10 11 10 8 7 6 5 2 1 1 1 3 3 2 4 7 7 5 2 2 3 4 6 11 10 10 11 9 10 11 11 14 12 5 6 7 6 8 7 10 12 9 11 14 11 8 7 7 10 9 8 8 7 7 7 6 6 7 4 4 4 4 6 6 3 6 4 4 5 5 5 6 5 7 10 10 11 11 10
4 4 2 2 2 4 6 7 8 11 13 10 8 6 6 5 2 1 1 1 3 3 5 5 6 6 5 3 2 1 3 3 10 10 8 10 9 9 10 10 13 12 7 6 5 5 9 5 7 11 7 10 15 15 13 8 5 7 7 8 7 7 6 4 2 2 3 4 3 5 4 3 1 5 5 4 5 7 6 7 7 7 8 10 11 11 11 10
2 1 1 1 1 3 6 8 9 13 14 9 7 7 5 1 1 1 2 3 3 5 8 5 3 4 4 4 3 3 1 2 9 9 7 9 10 11 11 9 13 14 10 7 4 5 7 4 7 10 7 10 13 13 15 12 5 5 6 8 6 4 6 4 1 3 0 6 4 4 6 3 5 4 4 5 5 6 7 7 8 9 9 8 10 12 12 11
2 4 4 3 1 2 5 10 12 15 13 9 7 4 2 1 2 1 3 3 2 4 7 4 1 2 2 3 3 4 2 4 8 8 6 8 8 9 11 9 11 15 13 9 5 4 6 3 7 9 10 10 6 5 11 12 7 4 5 6 4 2 5 5 4 3 4 7 4 4 7 6 5 3 3 4 3 5 6 7 8 9 9 8 9 11 12 12
6 9 7 5 4 4 6 12 14 14 10 8 5 2 1 1 2 1 2 3 2 2 5 3 1 2 1 1 0 2 1 4 8 7 7 7 5 5 9 9 9 14 16 13 7 3 4 5 6 7 8 9 7 5 7 9 11 8 4 3 3 4 6 6 5 5 6 7 5 5 8 6 4 3 4 3 3 4 5 7 8 8 8 9 11 11 10 12
11 10 6 6 8 9 9 12 13 10 8 7 5 2 1 2 2 1 1 2 2 3 4 2 1 1 2 3 2 1 2 2 5 7 6 7 5 2 4 5 8 12 14 13 8 3 4 6 4 6 6 7 8 8 7 8 10 9 6 5 5 4 4 4 5 5 5 6 5 5 6 3 1 4 4 4 4 5 5 6 6 8 9 10 11 10 9 11
11 7 5 7 8 8 8 9 9 7 6 4 3 2 2 2 2 3 3 2 3 3 2 2 2 2 2 4 3 1 2 2 3 6 5 5 5 3 3 3 6 8 8 10 9 5 5 5 4 5 7 7 7 7 7 7 8 9 8 8 7 4 4 4 4 5 5 5 5 5 5 2 4 4 3 4 4 4 5 7 6 7 8 8 8 7 7 9
10 5 5 8 6 5 4 5 6 5 4 2 1 2 2 1 1 3 3 3 4 4 3 4 4 4 4 4 2 1 3 3 3 4 5 6 7 4 1 1 3 6 6 8 9 7 5 5 6 5 6 8 6 3 1 3 3 6 7 8 8 7 5 6 6 6 5 5 4 5 3 3 4 3 3 4 4 4 5 8 7 7 6 7 6 5 6 7
9 3 5 9 6 3 1 3 3 2 3 2 1 2 1 2 2 2 2 3 5 4 3 4 5 5 5 4 3 3 4 4 3 3 4 5 4 1 3 2 1 4 4 6 7 4 2 3 7 7 6 4 5 6 3 2 2 4 5 6 7 6 6 8 7 5 5 6 4 6 4 3 3 1 3 5 6 6 6 8 9 8 8 8 8 7 8 8
7 3 6 9 5 1 2 2 3 2 2 2 1 1 1 2 3 2 2 3 4 3 3 4 4 4 3 2 4 4 3 3 3 3 3 3 3 5 5 2 1 4 4 4 4 4 2 4 7 7 7 4 5 5 3 1 2 5 4 2 4 5 5 6 5 2 3 6 5 6 5 3 3 2 6 9 10 10 9 9 10 9 9 9 9 9 8 9
7 7 6 7 4 1 3 2 3 2 2 2 2 2 2 2 3 3 3 3 2 2 3 3 2 3 2 2 4 5 4 3 3 1 2 3 3 7 7 3 2 4 3 2 2 6 4 6 7 6 7 7 6 6 6 5 5 4 2 1 3 4 5 5 4 4 6 6 5 6 4 4 5 5 8 9 9 10 9 9 8 8 8 8 9 9 8 8
8 7 6 6 3 0 1 1 1 0 2 2 2 2 2 2 2 2 3 1 1 2 3 2 2 3 4 4 6 6 4 4 3 1 1 2 4 7 8 6 2 0 2 5 1 7 5 4 5 7 8 9 8 7 5 4 6 3 2 2 1 3 5 5 5 7 7 6 7 7 2 5 7 8 9 7 8 8 8 8 8 8 9 9 8 7 6 7
7 5 4 6 3 1 1 1 2 1 1 2 2 2 0 2 3 1 2 2 0 2 2 2 3 4 4 5 6 6 4 5 4 2 1 1 3 6 8 8 8 9 8 6 2 4 3 1 2 4 3 3 3 0 2 1 4 5 3 3 2 1 3 5 6 7 6 6 7 5 6 10 9 8 8 7 8 8 7 7 8 8 9 8 7 7 7 8
4 3 3 4 3 3 3 2 1 0 1 1 1 1 0 1 3 3 2 2 1 1 2 1 3 2 2 4 5 4 3 5 5 2 1 2 2 4 4 7 10 13 10 3 3 1 4 4 0 4 4 4 5 5 4 2 2 4 4 3 2 1 2 6 7 4 3 4 5 4 12 14 10 9 8 7 7 7 7 7 7 8 8 8 8 8 9 10
2 2 2 3 2 2 2 2 1 2 2 1 0 0 1 1 2 3 2 2 1 0 2 1 2 2 2 3 4 3 3 4 3 1 2 3 2 3 3 7 10 11 8 3 4 2 4 4 2 3 4 6 6 4 3 3 5 6 5 4 4 3 0 4 4 4 5 5 4 6 12 12 10 10 8 7 7 8 8 8 7 8 8 8 9 10 12 13
3 4 4 3 1 2 4 4 2 3 3 1 1 1 1 1 2 2 1 2 3 1 1 1 2 4 4 3 2 1 2 2 0 3 4 4 4 0 2 4 6 8 7 5 6 5 3 3 5 5 3 6 5 3 2 3 6 7 6 6 5 4 4 2 2 4 4 2 3 9 13 11 8 8 8 8 8 10 11 10 9 9 8 8 10 12 14 15
5 4 5 5 4 5 5 3 3 4 3 1 1 2 1 1 2 2 1 0 1 1 1 0 2 3 4 5 3 3 5 5 3 4 5 4 3 2 1 2 1 4 5 5 4 5 3 2 6 6 4 3 2 2 1 2 5 7 7 6 5 4 5 5 4 4 2 3 7 11 13 9 5 7 10 10 10 11 11 10 11 10 9 9 11 14 14 14
6 7 8 7 4 3 3 2 2 3 3 2 1 2 1 1 3 1 1 1 2 2 3 2 2 1 0 2 4 5 6 7 6 5 6 5 3 4 3 2 1 2 2 3 1 4 3 2 4 6 5 4 4 5 4 3 4 6 7 8 6 3 4 4 4 3 3 3 8 9 7 5 5 9 11 11 12 13 11 11 11 10 9 9 11 13 14 13
7 9 10 6 2 1 2 2 2 2 2 2 2 1 1 2 2 1 1 2 1 2 4 3 3 2 3 3 1 4 6 8 8 8 6 4 3 3 3 3 3 2 1 1 2 2 3 4 5 7 6 6 7 7 5 4 5 4 4 6 6 4 2 3 4 5 6 0 5 4 4 7 9 10 11 10 11 12 12 11 11 10 10 10 11 13 13 13
Wind_Direction
317 322 328 331 330 329 331 332 332 330 328 328 329 329 328 327 328 329 330 330 331 332 333 337 337 332 332 332 332 333 334 330 322 309 249 123 139 247 240 211 189 183 178 171 175 176 166 167 170 170 170 172 189 183 181 194 193 202 223 231 238 240 248 59 32 1 352 353 359 346 348 338 333 348 348 337 307 322 318 209 153 155 99 53 70 110 134 141
317 320 327 327 327 327 328 326 326 326 322 322 321 320 319 319 321 322 323 323 323 327 331 337 335 331 331 332 334 336 338 337 327 151 134 127 166 259 249 193 183 182 178 174 177 174 167 170 169 172 176 176 184 175 180 189 196 216 229 233 242 268 35 42 19 18 352 336 339 333 336 330 328 339 337 333 332 328 292 176 168 152 109 86 99 120 136 142
313 323 325 322 325 325 324 322 318 317 314 316 314 311 312 313 315 317 317 318 320 323 328 333 333 330 331 334 336 338 341 341 82 147 146 126 154 247 245 179 178 176 172 173 177 178 176 174 169 174 181 183 182 179 190 187 196 223 234 240 247 55 50 60 49 17 345 332 326 323 326 318 325 334 325 326 324 316 39 92 159 143 119 113 127 140 152 159
306 317 318 314 319 321 320 315 309 308 308 310 309 308 309 309 311 312 312 314 316 319 324 328 329 327 330 334 336 341 336 321 170 170 181 156 330 270 220 175 171 166 165 169 176 182 180 175 173 177 187 187 178 185 195 184 192 215 226 249 330 55 230 123 92 332 327 322 319 314 312 311 327 324 310 319 314 304 64 29 42 123 138 145 152 157 162 165
296 299 304 308 314 319 317 311 308 307 306 308 308 308 308 306 307 307 306 308 310 314 318 322 323 323 329 333 335 341 327 295 158 183 208 211 304 285 195 168 166 163 161 164 169 174 172 173 174 180 196 189 172 190 200 194 207 224 227 247 281 294 260 127 291 310 316 309 309 304 308 322 323 310 302 313 308 334 24 16 48 130 153 153 159 164 165 164
297 297 300 306 311 316 317 314 310 308 309 310 309 310 310 306 305 303 304 305 305 307 310 315 318 318 326 329 334 338 313 292 172 249 251 249 290 270 173 159 163 164 157 160 164 168 171 172 177 184 198 195 182 195 200 197 211 235 230 232 235 248 265 278 288 295 302 300 302 300 309 322 309 301 310 313 307 328 348 348 117 146 150 149 162 167 169 167
300 300 302 308 309 311 314 313 310 310 312 314 313 313 310 305 304 303 303 301 301 302 305 309 310 312 321 328 335 326 284 293 302 277 266 248 239 134 156 152 162 163 155 162 166 170 172 175 186 190 197 197 192 199 198 199 209 232 239 227 233 249 260 271 282 285 291 292 294 296 302 305 296 302 314 312 318 338 354 129 141 144 142 147 161 166 171 170
301 302 306 310 311 312 311 310 310 311 313 317 318 314 308 305 303 304 303 301 300 299 300 302 303 306 313 329 334 302 258 266 300 298 272 197 151 129 142 148 160 159 158 168 169 174 175 182 193 192 207 202 190 197 193 206 214 228 243 246 245 250 257 265 273 277 284 285 287 289 290 289 289 303 304 306 348 44 95 126 135 138 140 150 160 162 166 166
299 303 307 309 312 313 310 310 310 311 314 317 316 311 305 302 302 304 302 300 299 297 298 297 298 300 307 329 321 288 232 210 302 344 119 157 147 135 134 145 155 153 163 174 174 182 182 192 197 194 230 205 183 196 191 210 216 217 235 246 253 257 262 268 272 276 279 277 282 284 282 282 289 305 292 296 67 104 123 129 134 136 143 152 159 160 162 162
297 302 306 309 312 311 310 310 311 313 314 313 311 306 300 299 301 301 300 299 296 295 295 294 296 297 305 326 302 277 165 232 300 74 109 149 148 137 135 146 151 153 168 177 183 191 190 202 196 196 258 208 190 197 192 213 237 193 235 248 258 266 268 270 273 273 276 272 269 272 279 282 284 287 258 111 100 134 132 133 137 140 148 152 156 159 166 165
296 302 305 308 310 309 310 310 312 314 313 311 306 300 296 298 299 297 296 295 293 295 295 295 298 297 303 307 276 260 274 265 176 118 110 129 142 139 137 143 145 156 169 176 188 191 197 205 187 190 220 181 184 192 199 218 261 263 249 256 253 259 258 253 260 264 265 266 260 263 276 277 264 258 233 104 112 151 141 141 144 146 151 153 156 157 164 164
299 302 304 307 309 309 310 310 314 315 312 309 303 299 296 294 293 293 293 290 291 293 292 295 295 297 307 292 261 253 264 248 180 163 141 129 145 153 149 139 142 164 170 179 194 193 199 197 187 194 193 167 174 179 199 210 243 254 248 259 246 243 244 233 244 258 253 260 266 266 270 253 236 228 161 121 141 159 155 150 148 150 153 156 157 156 160 161
300 303 304 306 308 310 311 311 315 314 311 308 305 300 294 291 290 288 287 286 289 290 291 295 294 298 306 283 255 251 244 227 203 195 193 166 161 168 165 155 156 174 178 180 192 193 198 189 191 202 214 201 185 123 166 196 229 244 227 246 253 237 224 186 216 245 236 245 252 247 258 227 204 171 111 132 161 166 164 156 154 157 157 163 163 160 165 164
300 303 305 307 309 311 311 312 315 315 312 309 306 299 293 291 287 285 283 284 287 288 290 289 291 298 291 270 268 266 249 238 232 215 210 194 182 183 174 166 166 171 169 164 167 182 189 184 193 205 213 222 195 144 187 194 215 234 212 220 244 242 164 123 158 243 220 169 196 227 246 224 175 119 97 137 164 174 173 162 163 166 166 171 172 170 174 175
300 303 305 307 310 311 310 313 317 317 313 309 304 297 292 288 286 286 284 286 287 286 288 287 290 293 275 271 274 272 247 236 231 220 215 204 198 197 185 178 170 167 162 160 166 174 177 178 190 199 195 205 202 197 209 201 200 218 228 207 205 227 150 134 164 265 293 102 175 221 241 237 177 108 100 133 162 183 182 170 168 173 177 180 182 182 182 184
299 301 304 307 308 309 309 313 316 317 313 307 301 294 290 286 287 289 286 287 285 284 288 284 285 286 277 264 249 255 190 199 204 202 208 203 198 196 195 186 168 165 161 162 169 167 173 177 190 207 194 192 208 212 212 210 203 205 233 232 182 211 197 152 158 172 297 272 186 223 257 252 176 109 110 128 161 189 191 180 175 176 184 189 189 189 187 189
296 299 304 306 306 307 307 311 313 314 308 302 298 293 291 290 291 293 289 285 281 282 281 268 287 293 261 216 196 185 143 148 145 149 183 194 193 190 188 178 164 163 155 158 160 154 173 181 189 209 207 208 214 217 217 218 212 190 211 240 209 223 248 177 152 153 229 261 218 224 253 263 253 126 123 133 162 189 198 187 182 184 188 193 196 196 194 194
295 298 304 307 306 305 307 310 310 309 307 303 298 294 295 295 296 294 284 279 271 272 275 240 216 286 241 208 201 165 148 144 141 149 162 180 184 181 178 169 158 158 154 160 164 164 178 187 198 201 202 213 209 210 219 232 237 199 198 231 220 213 233 235 179 139 223 262 248 237 239 249 256 213 137 144 167 189 204 191 190 194 192 195 197 201 202 198
297 299 303 305 303 304 306 306 303 306 310 302 298 300 304 304 301 291 270 247 208 221 286 200 191 261 55 150 176 164 162 160 148 171 181 178 174 168 171 167 160 165 169 173 172 175 183 188 203 210 203 205 206 214 225 296 359 248 215 253 254 222 217 220 241 307 295 277 260 249 246 243 246 220 140 140 172 191 208 200 197 198 196 200 198 202 206 202
300 300 301 301 301 304 303 299 300 308 309 300 301 305 304 298 285 264 236 231 229 249 284 240 217 257 312 116 172 190 187 186 178 177 187 183 169 162 166 168 169 182 193 186 163 170 193 202 202 213 216 209 207 215 236 292 340 276 258 253 253 252 241 178 216 257 286 283 264 249 252 250 250 241 154 134 180 202 210 208 206 204 200 201 202 203 206 205
301 300 300 300 300 303 299 298 301 308 306 296 291 276 297 307 280 297 281 254 250 258 269 256 241 251 251 201 178 183 183 202 204 179 185 178 168 169 172 173 181 196 200 185 149 153 199 220 215 219 227 216 201 203 221 239 237 247 252 254 249 249 246 177 227 261 251 265 264 252 252 248 247 249 195 147 205 221 217 213 211 212 207 203 203 202 202 205
303 300 299 300 302 303 297 296 301 306 302 289 255 224 277 279 254 296 321 282 269 260 259 255 246 246 243 234 221 206 204 229 204 182 182 173 177 186 176 182 200 192 178 173 157 166 202 227 226 217 202 176 179 193 209 220 233 239 241 253 254 251 257 213 221 236 219 242 260 256 256 252 248 250 237 209 231 236 226 221 217 217 215 210 205 199 195 199
303 301 300 301 302 303 295 294 301 301 295 278 222 203 240 244 247 297 312 285 281 258 246 244 235 238 239 239 235 224 226 237 218 195 185 176 188 197 180 187 207 190 174 187 197 197 204 226 220 190 162 175 179 187 203 212 227 232 237 247 245 230 246 229 190 183 220 253 271 277 272 263 253 250 249 231 224 230 227 226 224 223 223 219 211 202 195 195
305 301 301 301 300 302 293 291 296 288 280 259 222 213 230 241 261 325 304 271 278 249 235 230 220 226 224 229 227 212 213 224 223 202 187 183 189 194 193 197 203 200 192 199 210 218 215 166 170 175 179 196 194 189 203 221 232 229 234 247 257 255 254 265 245 223 257 250 247 264 267 255 240 237 238 208 192 209 214 219 224 225 228 227 218 207 200 197
303 301 304 302 299 302 294 294 289 256 247 256 243 231 230 241 277 325 286 264 250 200 209 197 184 194 195 201 195 193 206 221 223 205 186 190 189 182 196 201 201 209 204 201 211 228 222 116 146 192 192 201 208 204 211 224 243 238 225 233 255 265 260 264 259 252 263 240 206 221 250 246 219 223 230 199 188 203 197 205 222 223 224 225 219 210 201 197
301 304 308 301 299 300 297 298 249 215 239 274 249 227 223 242 290 311 276 262 210 154 168 161 146 127 140 173 169 175 203 215 215 204 187 194 196 190 192 188 200 224 210 199 210 239 214 142 172 201 190 202 216 221 217 217 243 253 212 215 242 254 254 252 242 226 251 249 161 198 248 260 208 211 223 208 205 206 190 200 225 226 223 220 215 208 200 195
300 305 305 299 296 296 284 228 220 217 266 266 226 212 215 245 277 286 253 242 191 128 135 128 110 83 83 166 169 172 180 151 180 194 193 195 193 199 209 183 194 224 198 184 205 222 200 176 181 190 191 205 213 222 210 204 237 254 101 204 243 243 238 232 224 224 245 305 157 201 240 267 253 229 212 209 219 212 197 215 230 228 226 219 210 202 197 192
299 303 302 296 292 296 282 238 230 227 226 218 205 202 207 242 261 251 250 239 143 121 129 121 108 76 78 160 183 194 353 63 174 183 186 192 187 195 218 204 200 202 173 184 209 168 183 197 194 197 210 215 214 224 194 195 234 247 87 274 263 249 235 223 217 223 233 254 223 209 217 250 259 232 197 212 225 205 178 247 248 228 224 214 205 197 191 187
297 300 298 292 291 294 282 254 227 214 215 208 195 196 204 235 245 232 251 261 151 144 104 132 152 136 116 163 197 216 251 315 184 151 164 184 189 195 225 221 214 199 179 204 231 146 164 206 207 209 219 221 225 230 202 202 229 236 104 250 255 239 230 217 221 222 204 235 246 213 200 236 260 233 201 211 220 190 120 319 332 212 208 197 193 190 185 179
295 297 292 292 292 287 285 276 235 214 207 202 191 187 200 207 225 222 221 232 155 129 103 153 157 153 195 202 201 207 218 237 98 143 162 174 185 197 227 225 216 201 182 210 233 173 118 162 215 220 223 229 234 227 207 217 226 150 212 225 210 202 204 207 224 229 213 230 241 210 195 232 259 247 150 117 111 12 329 288 347 182 191 182 176 174 174 172
292 292 287 289 287 280 295 302 229 208 195 196 182 170 185 190 238 239 186 159 246 129 143 171 160 239 268 271 215 186 200 213 149 157 168 167 180 194 201 197 202 200 189 206 225 208 176 179 189 210 219 234 240 205 191 218 219 217 233 226 207 193 189 206 208 210 233 234 219 191 198 233 249 242 75 72 62 9 319 301 292 215 180 168 159 155 160 164
289 289 284 282 278 277 277 191 195 181 177 182 171 174 195 198 226 235 152 159 241 119 110 128 326 308 298 280 226 179 190 195 175 174 177 175 180 189 197 191 181 192 199 197 203 202 202 210 205 199 204 215 224 198 177 197 208 218 231 225 221 206 191 213 208 202 233 226 150 163 205 239 245 129 78 64 52 15 334 324 279 216 171 162 158 153 151 153
290 286 280 277 276 272 231 196 193 181 168 168 174 191 221 228 214 221 205 184 90 37 20 331 312 304 287 259 193 169 189 180 175 184 184 186 190 191 202 204 193 200 213 200 196 194 199 208 209 210 204 206 220 214 181 187 201 211 218 217 224 219 205 218 215 212 230 207 139 160 211 243 239 107 69 43 40 21 1 32 75 139 141 143 147 147 145 151
293 286 282 278 268 215 192 189 189 185 171 170 187 198 216 225 194 90 228 161 41 359 320 319 310 291 259 251 102 157 205 175 170 182 182 188 200 196 200 207 204 208 216 199 203 211 212 207 198 205 202 193 209 226 220 206 199 205 219 227 233 235 229 232 234 235 237 212 149 159 202 247 241 119 77 51 52 44 37 65 73 84 115 125 131 138 143 160
296 292 285 262 216 187 193 188 183 181 173 179 200 201 206 215 179 145 198 34 25 335 312 311 295 265 208 162 109 187 261 188 175 187 188 191 203 201 197 198 200 206 207 197 197 211 227 236 184 189 191 186 199 217 229 238 216 196 213 233 237 241 240 241 284 326 278 248 182 175 223 266 144 124 114 93 68 62 64 79 85 89 110 123 131 137 142 155
328 354 90 143 176 218 208 195 184 174 172 189 209 203 209 238 36 104 44 8 0 342 317 288 243 251 213 169 154 156 252 216 183 188 193 195 204 205 202 194 193 203 209 201 182 189 222 231 157 168 190 202 205 205 210 224 226 178 205 225 222 249 257 238 182 93 287 260 218 191 236 194 135 151 135 105 72 74 83 90 107 114 116 127 135 139 145 150
82 111 105 103 97 266 202 185 176 168 176 208 217 203 212 57 37 28 33 355 332 337 312 283 163 295 254 192 160 132 167 196 186 197 199 192 200 203 204 196 189 202 212 216 215 207 231 225 156 176 199 198 203 210 206 219 229 198 209 215 181 216 259 249 234 199 213 244 220 201 241 218 178 192 147 123 76 75 89 97 118 130 131 134 128 128 141 146
131 127 109 99 90 89 149 159 157 164 185 219 214 201 263 155 92 12 6 342 320 307 294 284 10 334 301 232 177 93 202 202 187 204 206 189 184 194 204 198 191 205 215 222 226 195 234 236 172 179 192 171 170 211 210 211 223 234 266 250 203 217 224 215 230 233 225 239 231 212 231 234 211 177 157 159 107 82 91 101 110 115 115 118 111 107 120 133
143 137 117 111 104 98 123 139 146 170 201 218 204 181 207 179 147 215 281 309 289 279 287 285 278 285 298 305 320 46 323 250 193 209 217 198 182 189 221 205 193 205 214 222 224 185 219 242 195 170 169 160 174 206 210 194 203 228 261 249 230 243 241 218 218 232 238 238 235 220 217 230 60 116 140 143 119 106 105 112 107 93 93 102 109 110 116 128
157 157 132 132 123 101 109 135 158 195 207 212 220 170 156 177 179 206 235 267 263 260 285 298 262 262 299 311 314 349 325 303 215 222 227 196 183 195 225 208 189 189 200 218 225 208 204 228 213 159 154 179 194 204 219 210 195 206 222 220 214 219 242 247 225 227 253 252 238 238 220 136 56 68 102 107 117 123 116 113 100 86 91 95 101 115 125 130
174 177 135 151 152 105 111 164 180 211 206 192 239 159 152 270 247 206 204 234 257 257 276 287 273 279 306 303 301 338 305 282 228 227 223 200 206 208 145 169 191 170 177 208 217 214 202 212 223 192 177 203 195 133 2 296 247 225 223 221 218 211 214 233 225 211 235 255 256 262 247 110 73 34 81 113 138 140 119 109 95 80 88 95 91 86 88 94
187 182 140 166 167 105 220 202 162 216 219 167 108 149 139 297 261 227 195 215 244 237 236 268 270 275 288 288 302 322 304 279 236 228 227 204 204 138 55 18 248 185 194 204 198 198 199 219 225 221 218 202 122 91 61 356 312 260 250 247 238 221 213 228 232 208 209 228 242 259 256 109 89 59 89 101 98 87 84 92 93 79 74 85 82 69 67 68
189 147 140 170 170 134 261 200 147 197 197 100 64 183 183 259 240 225 206 212 233 224 221 247 257 261 271 301 309 307 308 292 257 243 242 200 113 53 34 10 226 205 214 214 181 148 160 229 228 226 227 200 124 122 139 144 234 230 224 250 264 245 234 248 261 256 224 221 224 243 234 137 116 106 89 84 78 73 66 72 88 85 73 72 71 69 67 59
162 128 138 168 162 207 257 210 159 173 115 108 179 169 168 243 247 244 237 224 229 238 246 251 250 267 281 296 295 295 304 287 250 255 274 213 107 51 38 53 203 208 208 262 203 160 181 224 219 217 214 199 188 187 181 188 214 222 181 156 288 272 249 258 259 245 244 227 219 246 242 126 127 119 102 96 86 76 66 66 79 85 76 70 68 69 67 64
156 131 138 159 149 241 289 1 346 144 108 133 164 135 158 196 198 265 269 240 276 294 277 275 294 293 287 281 273 272 271 256 249 278 275 191 108 63 49 63 85 79 5 349 215 175 202 241 215 227 223 206 207 205 198 200 191 174 133 130 351 278 234 243 236 231 238 209 207 241 233 121 125 114 106 110 101 88 78 74 73 72 71 71 72 73 77 83
176 159 149 159 168 211 128 55 310 270 136 154 146 115 192 152 132 158 251 212 177 311 278 299 315 277 269 283 266 253 243 230 244 270 264 173 104 72 52 68 67 36 20 16 63 162 196 234 244 281 270 234 250 90 39 295 185 164 145 123 65 329 256 252 233 233 242 215 222 229 148 140 147 127 113 113 109 102 95 87 79 73 73 79 84 89 90 90
199 180 163 163 168 191 176 168 239 303 115 213 178 93 69 134 138 150 206 217 86 15 231 295 345 274 263 296 262 247 255 229 226 257 320 347 98 111 77 78 57 17 5 38 49 57 186 178 351 359 23 19 0 31 43 9 138 128 108 91 57 22 253 237 233 263 294 238 231 169 139 145 152 137 125 122 118 112 105 96 91 87 84 88 92 94 92 88
200 132 142 168 172 185 167 136 120 113 125 155 192 107 129 127 149 151 165 200 154 24 235 194 36 22 15 327 259 243 271 235 208 57 13 0 54 152 140 92 64 8 350 57 42 344 215 192 117 53 39 30 23 35 55 72 89 87 79 67 44 40 29 235 247 335 322 258 226 160 141 134 131 129 120 112 113 111 105 98 95 94 89 90 91 88 85 84
162 117 126 158 126 78 85 87 130 147 124 112 137 132 109 101 119 119 117 202 178 74 316 193 72 38 36 6 272 262 345 300 198 38 23 8 14 262 200 105 69 11 6 38 22 347 272 199 140 130 77 30 24 28 51 112 112 92 70 55 47 56 58 47 20 359 327 281 149 137 124 104 103 114 104 103 108 104 101 97 91 85 80 83 86 84 80 79
176 147 138 147 118 97 102 115 168 158 134 205 171 111 99 106 103 101 74 223 161 77 4 53 62 37 35 35 42 67 39 12 350 2 355 344 356 5 43 110 29 354 27 51 7 331 316 148 152 159 137 72 26 40 73 148 129 103 76 50 40 63 65 47 31 8 354 103 117 124 116 96 89 104 106 113 115 105 96 90 85 79 74 79 82 81 79 75
189 167 160 157 125 112 136 147 185 174 140 175 158 105 123 84 53 41 114 75 33 38 38 24 21 14 87 46 54 61 35 1 335 326 318 306 321 350 19 61 335 336 53 83 19 310 326 109 174 212 187 149 159 160 152 162 149 122 85 46 26 48 72 55 47 7 330 140 139 142 136 129 129 119 111 107 105 99 88 80 81 78 74 75 78 78 77 74
182 167 171 173 132 148 189 151 175 202 108 88 67 71 59 47 39 312 211 136 128 43 46 17 343 298 248 239 6 30 11 342 327 317 295 268 266 303 329 339 334 345 43 153 176 236 233 169 185 221 204 158 157 159 151 169 183 155 81 30 10 20 63 76 70 18 342 187 161 163 133 129 134 128 116 101 92 86 80 78 83 85 83 79 78 78 75 74
Height
1511 1511 1511 1511 1510 1510 1510 1510 1509 1509 1509 1508 1508 1507 1507 1506 1505 1505 1504 1504 1503 1503 1502 1502 1502 1501 1501 1500 1500 1499 1499 1498 1497 1496 1496 1496 1496 1495 1495 1496 1497 1497 1499 1500 1501 1502 1504 1506 1507 1509 1510 1511 1511 1511 1512 1512 1512 1511 1508 1506 1501 1495 1494 1495 1496 1497 1498 1498 1498 1499 1498 1498 1496 1494 1494 1492 1490 1489 1490 1491 1492 1494 1496 1498 1498 1498 1499 1500
1510 1510 1510 1510 1509 1509 1509 1509 1509 1508 1508 1507 1507 1506 1506 1505 1505 1504 1504 1503 1503 1502 1502 1501 1501 1500 1500 1499 1499 1498 1497 1496 1495 1495 1495 1495 1495 1495 1494 1495 1496 1496 1498 1499 1500 1502 1504 1505 1506 1508 1509 1509 1510 1510 1510 1510 1511 1508 1504 1503 1498 1493 1495 1497 1499 1500 1501 1501 1500 1499 1499 1498 1496 1495 1495 1492 1489 1487 1487 1488 1491 1493 1496 1498 1499 1499 1500 1501
1509 1509 1509 1509 1509 1508 1508 1508 1508 1507 1507 1506 1506 1505 1505 1504 1504 1503 1503 1502 1502 1501 1501 1501 1500 1500 1499 1498 1498 1497 1496 1496 1495 1495 1494 1494 1494 1494 1494 1494 1495 1496 1497 1499 1501 1503 1504 1505 1506 1507 1508 1508 1508 1509 1509 1509 1509 1506 1503 1501 1495 1494 1499 1500 1501 1502 1503 1502 1501 1500 1499 1498 1496 1496 1495 1492 1489 1485 1485 1486 1488 1491 1496 1498 1499 1499 1498 1499
1508 1508 1508 1508 1508 1508 1508 1507 1507 1506 1506 1505 1505 1504 1504 1503 1503 1502 1502 1501 1501 1500 1500 1500 1499 1499 1498 1498 1497 1496 1496 1495 1494 1494 1493 1493 1493 1493 1493 1493 1494 1495 1497 1499 1502 1503 1505 1505 1506 1507 1507 1506 1507 1508 1507 1507 1506 1504 1503 1500 1496 1498 1500 1501 1503 1503 1504 1503 1502 1500 1499 1496 1495 1496 1494 1492 1490 1484 1485 1489 1489 1492 1496 1497 1498 1499 1498 1499
1507 1507 1507 1507 1507 1506 1506 1506 1506 1505 1505 1504 1503 1503 1503 1502 1502 1501 1501 1500 1499 1499 1499 1499 1498 1498 1498 1497 1497 1496 1495 1493 1491 1493 1493 1493 1492 1492 1492 1492 1493 1495 1496 1498 1501 1503 1504 1505 1506 1507 1506 1503 1505 1507 1505 1505 1505 1503 1502 1499 1499 1501 1500 1501 1504 1504 1504 1503 1502 1500 1498 1497 1496 1495 1493 1492 1491 1486 1487 1491 1491 1493 1495 1495 1497 1499 1499 1499
1506 1506 1506 1506 1506 1505 1505 1505 1505 1504 1504 1503 1502 1502 1501 1501 1500 1500 1499 1499 1498 1498 1498 1498 1498 1497 1497 1496 1496 1496 1495 1491 1490 1492 1492 1492 1492 1491 1491 1491 1493 1494 1496 1498 1500 1502 1503 1505 1505 1505 1504 1502 1503 1503 1502 1504 1505 1502 1499 1499 1501 1502 1501 1502 1503 1503 1503 1502 1501 1499 1498 1498 1496 1493 1492 1492 1491 1489 1490 1492 1492 1493 1494 1495 1497 1498 1498 1500
1505 1505 1505 1505 1505 1504 1504 1504 1503 1503 1503 1502 1501 1501 1500 1499 1499 1498 1498 1497 1497 1497 1497 1497 1497 1496 1496 1496 1495 1495 1494 1492 1491 1491 1490 1491 1491 1490 1490 1491 1493 1494 1496 1498 1500 1501 1502 1504 1503 1503 1502 1501 1501 1501 1501 1503 1504 1502 1498 1498 1501 1502 1503 1503 1503 1503 1503 1502 1501 1499 1498 1498 1496 1492 1491 1491 1490 1490 1491 1491 1492 1493 1494 1495 1496 1497 1499 1501
1504 1504 1504 1504 1504 1503 1503 1502 1502 1502 1501 1501 1500 1499 1498 1498 1497 1497 1496 1496 1495 1495 1495 1496 1495 1495 1495 1495 1495 1493 1492 1492 1490 1490 1490 1490 1490 1491 1491 1492 1493 1494 1497 1498 1500 1501 1502 1503 1502 1502 1500 1498 1500 1500 1501 1502 1502 1502 1499 1499 1501 1502 1503 1502 1502 1502 1502 1501 1500 1499 1498 1496 1494 1493 1491 1490 1490 1491 1491 1491 1492 1493 1494 1496 1497 1498 1499 1501
1503 1503 1503 1503 1503 1502 1502 1501 1501 1500 1500 1499 1498 1498 1497 1496 1496 1495 1495 1494 1494 1494 1494 1494 1494 1494 1494 1494 1495 1491 1489 1490 1490 1489 1490 1490 1490 1491 1491 1492 1494 1495 1498 1499 1500 1501 1501 1501 1501 1501 1499 1498 1500 1500 1501 1502 1498 1498 1499 1499 1500 1501 1501 1501 1501 1501 1500 1500 1499 1497 1496 1494 1493 1493 1491 1489 1491 1492 1492 1492 1493 1494 1495 1496 1497 1499 1499 1501
1502 1502 1502 1502 1502 1501 1501 1500 1500 1499 1498 1498 1497 1496 1495 1495 1494 1494 1493 1493 1493 1492 1492 1493 1493 1493 1493 1494 1494 1489 1488 1490 1489 1489 1490 1490 1491 1491 1492 1494 1494 1496 1498 1499 1500 1500 1500 1501 1501 1502 1501 1499 1500 1499 1500 1500 1496 1497 1499 1499 1500 1500 1500 1501 1500 1500 1499 1498 1498 1496 1494 1492 1492 1493 1490 1489 1491 1492 1492 1493 1493 1494 1496 1496 1498 1499 1500 1501
1500 1500 1500 1500 1500 1500 1499 1499 1498 1498 1497 1496 1495 1494 1493 1493 1493 1492 1492 1491 1491 1491 1491 1491 1491 1492 1492 1493 1492 1488 1487 1489 1489 1489 1490 1490 1491 1492 1493 1494 1495 1497 1498 1499 1499 1500 1500 1500 1501 1502 1500 1499 1499 1499 1499 1499 1497 1498 1500 1499 1499 1499 1499 1499 1498 1498 1497 1496 1495 1494 1493 1492 1491 1491 1489 1489 1491 1492 1493 1493 1494 1495 1496 1497 1498 1499 1500 1501
1499 1499 1499 1499 1498 1498 1498 1497 1497 1496 1495 1494 1494 1493 1492 1491 1491 1490 1490 1489 1489 1489 1489 1489 1490 1490 1491 1491 1490 1488 1487 1488 1489 1489 1490 1490 1491 1492 1493 1494 1495 1497 1498 1499 1499 1499 1499 1500 1501 1500 1498 1498 1497 1498 1498 1498 1499 1499 1500 1499 1497 1496 1496 1495 1495 1495 1495 1494 1493 1494 1494 1490 1488 1487 1486 1489 1491 1491 1493 1494 1494 1495 1496 1498 1498 1500 1501 1501
1498 1498 1497 1497 1497 1496 1496 1496 1496 1495 1494 1493 1492 1491 1490 1489 1489 1489 1488 1488 1487 1487 1487 1488 1489 1489 1490 1489 1487 1486 1487 1487 1488 1489 1489 1490 1491 1491 1492 1493 1494 1496 1498 1499 1499 1498 1499 1499 1500 1500 1499 1498 1496 1497 1497 1498 1500 1498 1497 1497 1495 1493 1491 1491 1493 1494 1493 1493 1493 1495 1495 1486 1480 1483 1486 1489 1490 1490 1492 1493 1495 1496 1497 1498 1499 1500 1501 1502
1497 1496 1496 1495 1495 1495 1494 1494 1494 1493 1492 1491 1490 1490 1488 1488 1488 1487 1486 1486 1486 1486 1486 1486 1487 1488 1489 1487 1484 1484 1485 1485 1486 1487 1488 1490 1491 1492 1492 1493 1494 1495 1496 1497 1498 1498 1498 1498 1500 1500 1500 1498 1496 1497 1497 1497 1498 1495 1495 1495 1493 1491 1489 1490 1492 1491 1490 1491 1492 1494 1493 1482 1476 1482 1486 1488 1489 1489 1490 1492 1494 1496 1498 1498 1498 1500 1501 1501
1495 1495 1494 1494 1493 1493 1493 1493 1492 1492 1491 1489 1489 1488 1487 1486 1486 1485 1485 1484 1484 1485 1484 1485 1486 1487 1487 1485 1482 1481 1482 1483 1484 1485 1487 1488 1490 1491 1492 1493 1494 1495 1495 1496 1497 1497 1498 1499 1500 1499 1498 1498 1498 1497 1495 1494 1494 1493 1495 1492 1489 1490 1488 1489 1491 1490 1489 1490 1490 1492 1490 1480 1475 1481 1486 1488 1489 1489 1488 1490 1493 1496 1497 1498 1498 1499 1501 1501
1494 1493 1493 1492 1492 1492 1491 1491 1491 1490 1489 1488 1487 1486 1485 1485 1484 1484 1483 1483 1484 1483 1484 1484 1484 1486 1485 1482 1480 1480 1481 1482 1482 1484 1485 1486 1489 1491 1492 1492 1494 1494 1495 1496 1496 1497 1498 1499 1499 1498 1497 1497 1497 1493 1491 1493 1492 1491 1492 1488 1487 1489 1487 1487 1490 1490 1490 1489 1489 1489 1487 1480 1476 1480 1485 1487 1488 1488 1488 1489 1492 1495 1497 1498 1499 1499 1500 1501
1492 1492 1492 1491 1491 1490 1490 1490 1489 1489 1488 1486 1486 1484 1484 1483 1483 1483 1482 1482 1482 1482 1483 1483 1483 1485 1482 1479 1480 1480 1481 1481 1482 1483 1484 1485 1488 1490 1491 1492 1493 1494 1495 1496 1496 1497 1498 1498 1499 1497 1496 1495 1492 1491 1493 1495 1490 1488 1489 1488 1487 1489 1488 1488 1488 1489 1490 1489 1488 1488 1487 1482 1477 1479 1484 1487 1488 1488 1487 1489 1491 1493 1495 1497 1498 1499 1499 1500
1491 1491 1490 1489 1489 1489 1488 1488 1488 1487 1486 1485 1484 1483 1483 1482 1482 1481 1481 1482 1482 1483 1483 1481 1483 1483 1478 1477 1479 1479 1480 1481 1482 1483 1483 1484 1486 1489 1490 1491 1493 1494 1495 1496 1496 1497 1498 1497 1496 1494 1494 1494 1491 1490 1492 1490 1484 1484 1488 1488 1487 1488 1490 1489 1487 1488 1489 1489 1488 1487 1486 1483 1478 1477 1481 1485 1487 1487 1487 1488 1490 1492 1494 1495 1496 1498 1498 1499
1490 1489 1488 1488 1487 1487 1487 1487 1487 1486 1485 1484 1483 1483 1482 1482 1481 1480 1480 1481 1481 1481 1478 1478 1479 1477 1474 1476 1478 1479 1479 1481 1481 1482 1483 1483 1485 1488 1490 1491 1493 1493 1493 1493 1494 1496 1496 1495 1496 1493 1490 1490 1489 1486 1485 1483 1483 1484 1485 1486 1486 1487 1488 1487 1488 1487 1488 1490 1488 1486 1484 1481 1479 1477 1479 1484 1486 1487 1487 1487 1488 1490 1491 1493 1495 1496 1497 1498
1488 1488 1487 1486 1486 1486 1485 1485 1485 1485 1484 1483 1482 1482 1482 1481 1479 1478 1479 1479 1478 1476 1474 1475 1476 1475 1475 1476 1478 1479 1479 1480 1481 1482 1482 1482 1485 1487 1489 1491 1491 1491 1490 1489 1490 1494 1494 1493 1492 1489 1484 1483 1484 1484 1483 1484 1487 1488 1487 1487 1487 1487 1486 1486 1488 1487 1488 1491 1487 1483 1482 1480 1479 1477 1478 1483 1485 1485 1486 1486 1486 1487 1489 1490 1492 1494 1495 1497
1487 1486 1486 1485 1485 1484 1484 1484 1484 1483 1483 1482 1482 1482 1482 1481 1478 1477 1479 1476 1474 1473 1473 1473 1474 1474 1475 1476 1477 1477 1479 1479 1480 1481 1481 1482 1484 1486 1487 1488 1489 1488 1486 1486 1489 1493 1494 1491 1486 1482 1480 1480 1483 1485 1487 1489 1490 1490 1489 1487 1486 1485 1483 1484 1488 1487 1487 1492 1487 1481 1481 1480 1479 1476 1476 1481 1484 1483 1484 1484 1485 1485 1486 1488 1489 1492 1494 1496
1486 1485 1484 1484 1483 1483 1483 1482 1482 1482 1482 1481 1481 1482 1482 1481 1479 1479 1480 1476 1472 1472 1471 1470 1471 1472 1473 1474 1475 1476 1478 1478 1478 1479 1480 1481 1483 1482 1483 1485 1485 1483 1484 1486 1489 1492 1493 1489 1481 1479 1481 1483 1486 1487 1489 1491 1492 1491 1489 1488 1486 1482 1482 1485 1487 1486 1487 1490 1485 1480 1481 1479 1476 1475 1474 1478 1480 1481 1482 1482 1483 1483 1483 1485 1487 1490 1493 1495
1484 1483 1483 1482 1482 1482 1481 1481 1481 1481 1480 1480 1480 1481 1481 1480 1480 1480 1481 1477 1471 1468 1468 1468 1469 1469 1470 1471 1472 1474 1476 1475 1475 1476 1477 1480 1480 1480 1480 1481 1481 1480 1483 1486 1486 1488 1489 1483 1477 1480 1484 1486 1488 1489 1491 1491 1491 1490 1488 1488 1485 1482 1485 1488 1485 1486 1486 1486 1484 1482 1483 1480 1475 1474 1473 1475 1478 1478 1481 1481 1481 1482 1482 1483 1486 1488 1491 1493
1483 1482 1482 1481 1481 1481 1480 1480 1480 1479 1479 1479 1479 1480 1480 1479 1480 1480 1480 1476 1469 1466 1466 1466 1466 1467 1468 1468 1469 1471 1473 1473 1473 1473 1475 1477 1478 1479 1478 1478 1478 1479 1481 1481 1481 1482 1480 1477 1478 1482 1485 1486 1489 1490 1491 1492 1489 1487 1486 1486 1484 1482 1487 1487 1483 1485 1485 1483 1483 1485 1487 1479 1472 1473 1470 1470 1475 1477 1478 1480 1480 1481 1481 1483 1485 1487 1490 1491
1481 1481 1480 1479 1479 1479 1479 1479 1478 1478 1479 1478 1479 1479 1479 1480 1479 1480 1480 1473 1465 1463 1464 1464 1465 1466 1466 1466 1467 1469 1470 1470 1470 1471 1472 1474 1475 1476 1476 1476 1477 1477 1477 1479 1481 1479 1476 1478 1481 1483 1484 1484 1487 1488 1488 1490 1487 1484 1483 1484 1484 1483 1485 1485 1483 1487 1488 1483 1479 1482 1490 1479 1464 1467 1468 1466 1471 1474 1475 1477 1478 1479 1480 1481 1483 1485 1488 1490
1480 1479 1478 1478 1478 1478 1478 1478 1477 1478 1478 1478 1479 1478 1479 1480 1479 1479 1478 1470 1460 1458 1460 1462 1463 1463 1464 1465 1466 1468 1469 1467 1467 1469 1471 1472 1474 1474 1474 1475 1474 1474 1474 1476 1480 1478 1476 1479 1481 1482 1483 1484 1485 1486 1484 1486 1487 1484 1479 1479 1483 1482 1483 1484 1484 1488 1487 1481 1477 1479 1486 1479 1464 1465 1465 1464 1467 1469 1471 1475 1475 1476 1478 1479 1480 1483 1486 1489
1478 1478 1477 1476 1476 1477 1477 1477 1477 1477 1478 1478 1477 1478 1479 1479 1479 1480 1477 1469 1461 1457 1458 1461 1462 1462 1463 1464 1465 1466 1466 1464 1464 1467 1468 1470 1472 1474 1473 1471 1473 1474 1472 1477 1483 1478 1475 1479 1481 1481 1483 1484 1485 1484 1481 1484 1487 1483 1477 1479 1481 1479 1482 1483 1484 1486 1479 1475 1479 1477 1478 1480 1473 1465 1461 1462 1465 1467 1470 1473 1474 1475 1476 1476 1478 1481 1484 1487
1476 1476 1475 1475 1475 1475 1475 1476 1476 1476 1477 1477 1476 1478 1479 1478 1479 1479 1475 1471 1463 1456 1457 1460 1462 1462 1462 1464 1464 1463 1462 1462 1462 1463 1466 1469 1471 1473 1472 1468 1470 1472 1472 1478 1481 1474 1473 1479 1480 1481 1483 1482 1481 1479 1478 1483 1485 1479 1477 1480 1479 1478 1480 1479 1480 1481 1476 1479 1483 1475 1475 1484 1477 1461 1458 1463 1464 1466 1472 1473 1473 1474 1474 1476 1477 1480 1483 1485
1475 1475 1474 1474 1473 1474 1474 1474 1475 1475 1475 1475 1477 1478 1477 1479 1480 1475 1473 1471 1461 1455 1457 1459 1461 1462 1462 1463 1463 1462 1462 1461 1460 1461 1465 1468 1469 1470 1470 1467 1467 1469 1472 1475 1473 1470 1473 1476 1476 1478 1480 1479 1477 1475 1476 1481 1481 1477 1479 1481 1479 1479 1479 1478 1479 1476 1478 1488 1484 1471 1472 1482 1474 1458 1458 1465 1465 1469 1474 1473 1472 1473 1474 1475 1477 1480 1483 1485
1474 1473 1473 1473 1472 1473 1473 1473 1474 1474 1474 1475 1477 1477 1477 1479 1477 1473 1475 1471 1457 1455 1458 1458 1459 1461 1461 1460 1459 1460 1461 1460 1460 1462 1464 1466 1468 1469 1468 1468 1467 1467 1471 1473 1470 1470 1473 1475 1475 1475 1475 1474 1473 1473 1475 1478 1478 1478 1480 1479 1478 1479 1477 1479 1476 1473 1484 1491 1478 1467 1469 1477 1475 1462 1460 1470 1473 1474 1475 1472 1472 1473 1474 1475 1477 1480 1482 1484
1472 1472 1471 1471 1471 1472 1472 1473 1473 1473 1474 1475 1476 1477 1478 1476 1472 1471 1472 1464 1455 1456 1457 1456 1458 1457 1458 1457 1455 1456 1458 1458 1459 1460 1462 1463 1466 1468 1467 1469 1469 1469 1473 1474 1471 1470 1473 1475 1475 1473 1473 1473 1473 1474 1476 1478 1478 1480 1479 1475 1478 1480 1479 1482 1479 1480 1491 1488 1471 1464 1466 1473 1477 1469 1468 1475 1476 1476 1476 1473 1473 1473 1473 1475 1478 1481 1482 1484
1470 1470 1469 1470 1470 1470 1472 1472 1472 1472 1474 1474 1476 1477 1476 1474 1471 1467 1462 1458 1458 1458 1455 1457 1457 1455 1456 1455 1453 1454 1454 1456 1457 1457 1458 1459 1462 1464 1463 1464 1466 1471 1475 1473 1470 1471 1472 1471 1470 1471 1472 1473 1474 1474 1476 1479 1479 1480 1478 1476 1481 1483 1487 1490 1485 1486 1487 1478 1469 1465 1468 1474 1473 1469 1472 1475 1476 1477 1477 1475 1474 1473 1474 1476 1479 1481 1482 1484
1469 1468 1468 1468 1468 1469 1470 1471 1471 1472 1473 1474 1476 1475 1473 1473 1470 1463 1456 1455 1460 1459 1457 1459 1457 1454 1454 1452 1451 1451 1451 1452 1454 1454 1455 1455 1458 1460 1459 1458 1458 1464 1468 1467 1468 1472 1472 1469 1466 1469 1471 1471 1472 1471 1474 1477 1477 1477 1476 1476 1480 1482 1492 1496 1487 1483 1482 1474 1468 1466 1472 1476 1467 1466 1474 1475 1476 1478 1476 1475 1476 1474 1475 1477 1480 1481 1483 1484
1467 1466 1466 1467 1467 1468 1469 1470 1471 1472 1473 1474 1474 1473 1474 1473 1466 1461 1457 1456 1458 1459 1458 1459 1456 1453 1451 1449 1449 1449 1450 1451 1451 1452 1453 1454 1457 1458 1457 1457 1456 1456 1460 1464 1466 1467 1472 1470 1464 1465 1466 1466 1469 1467 1466 1466 1468 1471 1467 1466 1471 1472 1481 1489 1481 1478 1478 1473 1471 1473 1476 1472 1465 1470 1475 1475 1477 1478 1476 1476 1476 1476 1477 1479 1480 1481 1483 1485
1465 1465 1465 1466 1467 1467 1468 1469 1470 1471 1472 1474 1472 1470 1473 1469 1461 1459 1460 1458 1459 1460 1457 1456 1455 1452 1449 1448 1449 1448 1448 1450 1449 1450 1451 1452 1455 1454 1454 1455 1455 1454 1458 1465 1466 1463 1467 1465 1455 1457 1461 1460 1464 1464 1462 1463 1465 1465 1461 1464 1469 1462 1463 1475 1477 1475 1475 1474 1474 1476 1471 1461 1464 1473 1472 1475 1479 1477 1477 1477 1476 1478 1478 1479 1481 1481 1483 1485
1464 1464 1465 1466 1466 1467 1467 1468 1469 1470 1472 1472 1470 1468 1466 1463 1459 1460 1461 1462 1463 1462 1458 1454 1453 1451 1447 1446 1447 1447 1447 1448 1448 1449 1449 1449 1450 1449 1449 1450 1452 1453 1455 1460 1463 1463 1467 1462 1451 1456 1461 1457 1459 1460 1459 1464 1465 1463 1465 1466 1462 1454 1455 1469 1479 1478 1479 1482 1475 1470 1465 1458 1468 1477 1471 1473 1479 1477 1478 1478 1477 1480 1480 1481 1482 1482 1484 1485
1464 1464 1465 1466 1466 1466 1466 1467 1468 1470 1471 1469 1467 1466 1462 1462 1463 1463 1463 1465 1465 1464 1461 1456 1453 1453 1451 1447 1446 1446 1447 1447 1448 1448 1447 1448 1448 1447 1447 1448 1450 1452 1452 1454 1458 1458 1462 1462 1454 1454 1459 1457 1458 1459 1457 1459 1460 1462 1466 1460 1454 1458 1459 1463 1476 1478 1480 1484 1473 1465 1467 1462 1467 1478 1475 1473 1479 1479 1478 1478 1479 1481 1481 1482 1483 1483 1485 1485
1464 1465 1466 1466 1466 1466 1465 1467 1468 1470 1471 1468 1466 1466 1464 1463 1465 1465 1466 1466 1465 1465 1462 1458 1456 1455 1454 1451 1448 1447 1447 1448 1448 1446 1446 1448 1449 1447 1446 1448 1450 1451 1450 1452 1456 1457 1459 1464 1457 1450 1454 1456 1458 1462 1461 1459 1458 1459 1461 1455 1455 1467 1467 1463 1473 1479 1479 1482 1475 1466 1465 1459 1461 1474 1478 1477 1480 1481 1479 1479 1480 1481 1482 1484 1484 1485 1486 1486
1463 1464 1466 1467 1467 1467 1467 1468 1469 1470 1470 1466 1464 1465 1465 1464 1466 1467 1467 1467 1466 1466 1462 1459 1458 1457 1455 1453 1450 1449 1448 1448 1448 1446 1445 1446 1449 1450 1448 1448 1450 1451 1451 1452 1454 1456 1459 1465 1462 1451 1451 1456 1457 1460 1460 1459 1458 1459 1460 1456 1455 1461 1462 1460 1464 1467 1470 1477 1476 1469 1466 1465 1468 1474 1479 1481 1481 1481 1481 1482 1482 1483 1484 1486 1487 1488 1488 1488
1463 1464 1465 1467 1467 1467 1468 1469 1469 1468 1467 1464 1462 1463 1465 1465 1465 1467 1467 1467 1466 1465 1462 1461 1460 1459 1456 1454 1452 1451 1450 1448 1447 1446 1446 1445 1449 1453 1450 1448 1449 1450 1453 1453 1453 1455 1457 1465 1465 1455 1452 1457 1457 1455 1454 1453 1455 1459 1461 1460 1458 1456 1455 1457 1457 1455 1460 1469 1472 1470 1471 1476 1478 1475 1477 1482 1482 1481 1483 1484 1485 1485 1487 1487 1489 1490 1490 1489
1463 1463 1465 1467 1467 1467 1468 1468 1467 1465 1463 1463 1463 1464 1465 1466 1465 1465 1467 1467 1466 1465 1463 1463 1461 1460 1459 1456 1453 1453 1451 1448 1446 1447 1447 1444 1447 1452 1451 1450 1450 1450 1454 1455 1454 1455 1457 1462 1464 1457 1454 1456 1453 1449 1451 1451 1451 1453 1454 1453 1454 1454 1456 1465 1466 1456 1454 1460 1464 1465 1471 1481 1482 1477 1479 1482 1483 1483 1483 1483 1486 1487 1488 1490 1491 1492 1491 1490
1462 1462 1464 1466 1466 1467 1467 1464 1465 1464 1462 1462 1464 1465 1466 1467 1466 1465 1466 1467 1466 1465 1464 1464 1462 1460 1460 1458 1455 1453 1452 1449 1447 1447 1447 1444 1445 1450 1452 1453 1452 1450 1452 1453 1453 1454 1455 1458 1461 1458 1452 1450 1451 1452 1453 1454 1452 1452 1452 1449 1448 1449 1454 1466 1469 1459 1455 1457 1458 1458 1467 1481 1485 1481 1481 1483 1484 1486 1485 1484 1486 1489 1491 1492 1493 1493 1492 1491
1461 1462 1464 1466 1466 1467 1465 1463 1464 1464 1462 1463 1466 1466 1467 1467 1466 1465 1465 1465 1465 1464 1464 1463 1462 1461 1460 1459 1457 1455 1453 1452 1449 1448 1448 1445 1448 1452 1453 1454 1454 1452 1451 1451 1452 1455 1458 1459 1460 1459 1451 1447 1450 1453 1454 1455 1455 1453 1453 1453 1453 1451 1451 1455 1457 1457 1459 1459 1459 1461 1468 1482 1487 1484 1484 1486 1487 1489 1489 1488 1490 1492 1494 1494 1494 1495 1493 1492
1462 1463 1465 1466 1466 1466 1464 1461 1462 1462 1463 1465 1466 1466 1467 1467 1466 1465 1465 1464 1464 1464 1464 1462 1461 1462 1460 1459 1459 1456 1455 1456 1452 1449 1448 1447 1451 1455 1454 1454 1455 1453 1453 1453 1453 1456 1460 1459 1458 1461 1459 1457 1458 1458 1457 1457 1455 1454 1455 1458 1458 1454 1453 1455 1453 1456 1461 1458 1459 1465 1471 1482 1488 1486 1487 1489 1490 1492 1492 1493 1494 1494 1496 1496 1495 1495 1495 1494
1462 1463 1465 1466 1466 1466 1464 1463 1462 1463 1464 1466 1466 1466 1466 1466 1466 1467 1465 1465 1465 1465 1464 1463 1462 1462 1461 1459 1459 1456 1454 1457 1455 1451 1450 1449 1451 1455 1455 1454 1455 1454 1455 1456 1454 1455 1459 1458 1457 1460 1461 1462 1463 1461 1459 1456 1453 1455 1458 1461 1462 1458 1458 1458 1455 1458 1461 1457 1457 1462 1470 1483 1489 1487 1489 1491 1491 1494 1495 1495 1496 1496 1496 1497 1497 1497 1497 1497
1459 1461 1464 1465 1466 1466 1465 1466 1465 1463 1464 1465 1466 1466 1465 1464 1466 1467 1466 1465 1465 1465 1465 1464 1463 1462 1461 1460 1459 1456 1454 1455 1455 1452 1451 1450 1452 1455 1456 1455 1456 1457 1458 1458 1457 1457 1460 1460 1461 1462 1461 1461 1461 1459 1458 1453 1452 1456 1460 1462 1464 1464 1463 1460 1457 1459 1459 1456 1457 1456 1463 1482 1490 1488 1492 1493 1493 1495 1496 1496 1497 1497 1498 1498 1498 1499 1499 1498
1458 1459 1460 1462 1464 1465 1464 1465 1465 1464 1464 1465 1466 1466 1466 1464 1464 1466 1466 1465 1465 1466 1465 1464 1462 1462 1462 1461 1459 1458 1456 1454 1454 1455 1454 1453 1453 1456 1457 1456 1457 1459 1460 1459 1459 1459 1460 1463 1466 1467 1466 1465 1462 1460 1459 1456 1456 1460 1463 1465 1465 1466 1466 1463 1461 1461 1457 1459 1464 1459 1459 1475 1486 1489 1493 1495 1495 1496 1497 1498 1499 1499 1499 1500 1500 1500 1499 1499
1459 1459 1461 1461 1461 1462 1462 1463 1464 1465 1465 1465 1466 1467 1466 1464 1464 1465 1466 1465 1465 1465 1464 1464 1463 1462 1462 1462 1460 1459 1458 1456 1457 1458 1457 1456 1455 1456 1457 1457 1459 1463 1462 1458 1460 1461 1459 1462 1469 1471 1470 1469 1465 1462 1461 1460 1462 1465 1467 1468 1467 1466 1467 1465 1464 1464 1460 1462 1466 1462 1461 1472 1484 1490 1494 1495 1496 1497 1498 1500 1500 1501 1501 1501 1501 1501 1500 1500
1459 1460 1462 1462 1462 1462 1463 1465 1465 1465 1465 1466 1466 1467 1466 1464 1464 1465 1465 1464 1465 1464 1464 1465 1465 1462 1461 1461 1460 1461 1462 1461 1463 1463 1460 1460 1460 1458 1458 1460 1463 1467 1465 1461 1464 1465 1460 1462 1470 1473 1475 1476 1472 1467 1465 1463 1465 1469 1470 1470 1470 1468 1469 1468 1467 1466 1463 1460 1460 1461 1470 1483 1491 1494 1496 1498 1499 1499 1499 1501 1502 1502 1503 1502 1502 1501 1500 1501
1459 1459 1461 1463 1463 1464 1466 1467 1465 1463 1465 1466 1466 1466 1467 1465 1465 1466 1465 1465 1466 1465 1465 1465 1465 1464 1463 1461 1461 1463 1466 1466 1467 1466 1465 1464 1462 1460 1461 1464 1465 1467 1467 1467 1470 1469 1465 1466 1469 1468 1473 1481 1478 1472 1469 1466 1467 1471 1474 1475 1472 1470 1471 1473 1473 1472 1466 1463 1465 1471 1482 1493 1497 1497 1498 1500 1501 1501 1502 1503 1503 1504 1505 1504 1503 1502 1502 1503
1459 1459 1461 1460 1463 1466 1466 1466 1465 1462 1462 1464 1465 1466 1467 1466 1466 1467 1466 1466 1467 1466 1466 1466 1465 1464 1464 1463 1463 1465 1466 1467 1467 1467 1466 1466 1465 1464 1464 1464 1465 1466 1467 1469 1472 1472 1468 1471 1474 1469 1469 1477 1478 1475 1472 1470 1468 1471 1478 1484 1482 1477 1478 1480 1482 1481 1474 1472 1476 1478 1483 1493 1498 1499 1500 1502 1502 1503 1504 1504 1505 1506 1506 1506 1505 1504 1504 1505
1459 1460 1461 1460 1462 1466 1465 1464 1464 1462 1463 1466 1467 1468 1468 1467 1467 1467 1467 1467 1467 1466 1467 1467 1466 1464 1463 1464 1465 1465 1466 1467 1467 1466 1466 1466 1466 1466 1466 1465 1465 1466 1467 1468 1470 1470 1467 1470 1474 1470 1466 1472 1476 1474 1474 1475 1472 1475 1485 1493 1492 1486 1484 1483 1485 1486 1481 1478 1479 1478 1481 1492 1498 1499 1501 1504 1504 1505 1506 1506 1507 1508 1508 1507 1506 1506 1506 1506